User: anonymous   Login
Location: Charleston
(38.3500°N, 81.6330°W)
Time: 18:07:40
(UTC-05:00)
Language:

Cosmos 2228 - Orbit

View from above orbital plane
View from above orbital plane
View from above satellite
View from above satellite

Ground track
Ground track

The orbit data is extracted from the following two-line orbital elements,

1 22286U 92094A   18056.86847060  .00000166  00000-0  15375-4 0  9991
2 22286  82.5215 134.8707 0021152   3.8630 356.2746 14.87907587360217
Epoch (UTC): 25 February 2018 20:50:35
Eccentricity: 0.0021152
inclination: 82.5215°
perigee height: 590 km
apogee height: 619 km
right ascension of ascending node: 134.8707°
argument of perigee: 3.8630°
revolutions per day: 14.87907587
mean anomaly at epoch: 356.2746°
orbit number at epoch: 36021

The dashed part of the orbit path shows where the satellite is in the earth's shadow,  

DLR